datetime,second,datetime.matlab,north,east,up
2016-04-08T00:00:00,0,736546,-0.051688,0.00479,-0.051637
2016-04-08T00:01:00,60,736546.0007,-0.051723,0.004554,-0.051575
2016-04-08T00:02:00,120,736546.0014,-0.051757,0.004317,-0.051519
2016-04-08T00:03:00,180,736546.0021,-0.051788,0.004079,-0.051467
2016-04-08T00:04:00,240,736546.0028,-0.051816,0.003842,-0.05142
2016-04-08T00:05:00,300,736546.0035,-0.051843,0.003604,-0.051378
2016-04-08T00:06:00,360,736546.0042,-0.051868,0.003365,-0.05134
2016-04-08T00:07:00,420,736546.0049,-0.051891,0.003127,-0.051307
2016-04-08T00:08:00,480,736546.0056,-0.051911,0.002888,-0.051279
2016-04-08T00:09:00,540,736546.0063,-0.051929,0.002649,-0.051256
2016-04-08T00:10:00,600,736546.0069,-0.051946,0.00241,-0.051238
2016-04-08T00:11:00,660,736546.0076,-0.05196,0.00217,-0.051224
2016-04-08T00:12:00,720,736546.0083,-0.051972,0.001931,-0.051215
2016-04-08T00:13:00,780,736546.009,-0.051982,0.001691,-0.051211
2016-04-08T00:14:00,840,736546.0097,-0.051989,0.001452,-0.051212
2016-04-08T00:15:00,900,736546.0104,-0.051995,0.001212,-0.051217
2016-04-08T00:16:00,960,736546.0111,-0.051999,0.000972,-0.051227
2016-04-08T00:17:00,1020,736546.0118,-0.052,0.000732,-0.051242
2016-04-08T00:18:00,1080,736546.0125,-0.051999,0.000492,-0.051262
2016-04-08T00:19:00,1140,736546.0132,-0.051996,0.000252,-0.051287
2016-04-08T00:20:00,1200,736546.0139,-0.051991,1.20E-05,-0.051316
2016-04-08T00:21:00,1260,736546.0146,-0.051984,-0.000227,-0.051351
2016-04-08T00:22:00,1320,736546.0153,-0.051975,-0.000467,-0.051389
2016-04-08T00:23:00,1380,736546.016,-0.051964,-0.000707,-0.051433
2016-04-08T00:24:01,1440,736546.0167,-0.05195,-0.000946,-0.051482
2016-04-08T00:25:01,1500,736546.0174,-0.051935,-0.001186,-0.051535
2016-04-08T00:26:01,1560,736546.0181,-0.051917,-0.001425,-0.051593
2016-04-08T00:27:01,1620,736546.0188,-0.051897,-0.001664,-0.051656
2016-04-08T00:28:01,1680,736546.0195,-0.051875,-0.001903,-0.051723
2016-04-08T00:29:01,1740,736546.0202,-0.051851,-0.002141,-0.051796
2016-04-08T00:30:01,1800,736546.0208,-0.051825,-0.00238,-0.051873
2016-04-08T00:31:01,1860,736546.0215,-0.051797,-0.002618,-0.051955
2016-04-08T00:32:01,1920,736546.0222,-0.051767,-0.002855,-0.052041
2016-04-08T00:33:01,1980,736546.0229,-0.051734,-0.003093,-0.052132
2016-04-08T00:34:01,2040,736546.0236,-0.0517,-0.00333,-0.052228
2016-04-08T00:35:01,2100,736546.0243,-0.051663,-0.003566,-0.052329
2016-04-08T00:36:01,2160,736546.025,-0.051625,-0.003803,-0.052435
2016-04-08T00:37:01,2220,736546.0257,-0.051584,-0.004038,-0.052545
2016-04-08T00:38:01,2280,736546.0264,-0.051541,-0.004274,-0.052659
2016-04-08T00:39:01,2340,736546.0271,-0.051496,-0.004509,-0.052779
2016-04-08T00:40:01,2400,736546.0278,-0.051449,-0.004743,-0.052903
2016-04-08T00:41:01,2460,736546.0285,-0.0514,-0.004977,-0.053032
2016-04-08T00:42:01,2520,736546.0292,-0.051349,-0.005211,-0.053165
2016-04-08T00:43:01,2580,736546.0299,-0.051295,-0.005444,-0.053303
2016-04-08T00:44:01,2640,736546.0306,-0.05124,-0.005676,-0.053446
2016-04-08T00:45:01,2700,736546.0313,-0.051183,-0.005908,-0.053593
2016-04-08T00:46:01,2760,736546.032,-0.051123,-0.006139,-0.053745
2016-04-08T00:47:01,2820,736546.0327,-0.051062,-0.00637,-0.053901
2016-04-08T00:48:02,2880,736546.0334,-0.050998,-0.006599,-0.054062
2016-04-08T00:49:02,2940,736546.0341,-0.050933,-0.006829,-0.054228
2016-04-08T00:50:02,3000,736546.0347,-0.050865,-0.007057,-0.054398
2016-04-08T00:51:02,3060,736546.0354,-0.050796,-0.007285,-0.054573
2016-04-08T00:52:02,3120,736546.0361,-0.050724,-0.007512,-0.054752
2016-04-08T00:53:02,3180,736546.0368,-0.05065,-0.007738,-0.054936
2016-04-08T00:54:02,3240,736546.0375,-0.050575,-0.007964,-0.055124
2016-04-08T00:55:02,3300,736546.0382,-0.050497,-0.008188,-0.055316
2016-04-08T00:56:02,3360,736546.0389,-0.050417,-0.008412,-0.055513
2016-04-08T00:57:02,3420,736546.0396,-0.050336,-0.008635,-0.055715
2016-04-08T00:58:02,3480,736546.0403,-0.050252,-0.008857,-0.055921
2016-04-08T00:59:02,3540,736546.041,-0.050167,-0.009079,-0.056131
2016-04-08T01:00:02,3600,736546.0417,-0.050079,-0.009299,-0.056346
2016-04-08T01:01:02,3660,736546.0424,-0.049989,-0.009518,-0.056565
2016-04-08T01:02:02,3720,736546.0431,-0.049898,-0.009737,-0.056788
2016-04-08T01:03:02,3780,736546.0438,-0.049804,-0.009954,-0.057016
2016-04-08T01:04:02,3840,736546.0445,-0.049709,-0.010171,-0.057248
2016-04-08T01:05:02,3900,736546.0452,-0.049612,-0.010386,-0.057484
2016-04-08T01:06:02,3960,736546.0459,-0.049512,-0.010601,-0.057724
2016-04-08T01:07:02,4020,736546.0466,-0.049411,-0.010814,-0.057969
2016-04-08T01:08:02,4080,736546.0473,-0.049308,-0.011026,-0.058218
2016-04-08T01:09:02,4140,736546.0479,-0.049203,-0.011238,-0.058471
2016-04-08T01:10:02,4200,736546.0486,-0.049096,-0.011448,-0.058728
2016-04-08T01:11:02,4260,736546.0493,-0.048987,-0.011657,-0.05899
2016-04-08T01:12:03,4320,736546.05,-0.048877,-0.011864,-0.059255
2016-04-08T01:13:03,4380,736546.0507,-0.048764,-0.012071,-0.059525
2016-04-08T01:14:03,4440,736546.0514,-0.04865,-0.012277,-0.059799
2016-04-08T01:15:03,4500,736546.0521,-0.048533,-0.012481,-0.060077
2016-04-08T01:16:03,4560,736546.0528,-0.048415,-0.012684,-0.060358
2016-04-08T01:17:03,4620,736546.0535,-0.048295,-0.012885,-0.060644
2016-04-08T01:18:03,4680,736546.0542,-0.048173,-0.013086,-0.060934
2016-04-08T01:19:03,4740,736546.0549,-0.04805,-0.013285,-0.061228
2016-04-08T01:20:03,4800,736546.0556,-0.047924,-0.013483,-0.061525
2016-04-08T01:21:03,4860,736546.0563,-0.047797,-0.01368,-0.061827
2016-04-08T01:22:03,4920,736546.057,-0.047668,-0.013875,-0.062133
2016-04-08T01:23:03,4980,736546.0577,-0.047537,-0.014069,-0.062442
2016-04-08T01:24:03,5040,736546.0584,-0.047405,-0.014261,-0.062755
2016-04-08T01:25:03,5100,736546.0591,-0.04727,-0.014452,-0.063072
2016-04-08T01:26:03,5160,736546.0598,-0.047134,-0.014642,-0.063393
2016-04-08T01:27:03,5220,736546.0605,-0.046996,-0.01483,-0.063717
2016-04-08T01:28:03,5280,736546.0612,-0.046857,-0.015016,-0.064045
2016-04-08T01:29:03,5340,736546.0618,-0.046716,-0.015202,-0.064377
2016-04-08T01:30:03,5400,736546.0625,-0.046573,-0.015385,-0.064712
2016-04-08T01:31:03,5460,736546.0632,-0.046428,-0.015568,-0.065051
2016-04-08T01:32:03,5520,736546.0639,-0.046282,-0.015748,-0.065394
2016-04-08T01:33:03,5580,736546.0646,-0.046134,-0.015927,-0.06574
2016-04-08T01:34:03,5640,736546.0653,-0.045984,-0.016105,-0.06609
2016-04-08T01:35:03,5700,736546.066,-0.045833,-0.016281,-0.066443
2016-04-08T01:36:04,5760,736546.0667,-0.04568,-0.016455,-0.0668
2016-04-08T01:37:04,5820,736546.0674,-0.045525,-0.016628,-0.06716
2016-04-08T01:38:04,5880,736546.0681,-0.045369,-0.016799,-0.067523
2016-04-08T01:39:04,5940,736546.0688,-0.045211,-0.016969,-0.06789
2016-04-08T01:40:04,6000,736546.0695,-0.045052,-0.017136,-0.06826
2016-04-08T01:41:04,6060,736546.0702,-0.044891,-0.017303,-0.068633
2016-04-08T01:42:04,6120,736546.0709,-0.044728,-0.017467,-0.06901
2016-04-08T01:43:04,6180,736546.0716,-0.044564,-0.01763,-0.06939
2016-04-08T01:44:04,6240,736546.0723,-0.044398,-0.017791,-0.069773
2016-04-08T01:45:04,6300,736546.073,-0.044231,-0.01795,-0.070159
2016-04-08T01:46:04,6360,736546.0737,-0.044062,-0.018107,-0.070549
2016-04-08T01:47:04,6420,736546.0744,-0.043892,-0.018263,-0.070941
2016-04-08T01:48:04,6480,736546.0751,-0.04372,-0.018417,-0.071337
2016-04-08T01:49:04,6540,736546.0757,-0.043547,-0.018569,-0.071735
2016-04-08T01:50:04,6600,736546.0764,-0.043372,-0.018719,-0.072137
2016-04-08T01:51:04,6660,736546.0771,-0.043196,-0.018867,-0.072542
2016-04-08T01:52:04,6720,736546.0778,-0.043019,-0.019014,-0.072949
2016-04-08T01:53:04,6780,736546.0785,-0.04284,-0.019158,-0.073359
2016-04-08T01:54:04,6840,736546.0792,-0.042659,-0.019301,-0.073772
2016-04-08T01:55:04,6900,736546.0799,-0.042478,-0.019442,-0.074188
2016-04-08T01:56:04,6960,736546.0806,-0.042295,-0.019581,-0.074607
2016-04-08T01:57:04,7020,736546.0813,-0.04211,-0.019718,-0.075028
2016-04-08T01:58:04,7080,736546.082,-0.041924,-0.019853,-0.075452
2016-04-08T01:59:04,7140,736546.0827,-0.041737,-0.019986,-0.075879
2016-04-08T02:00:05,7200,736546.0834,-0.041548,-0.020117,-0.076308
2016-04-08T02:01:05,7260,736546.0841,-0.041358,-0.020246,-0.07674
2016-04-08T02:02:05,7320,736546.0848,-0.041167,-0.020373,-0.077174
2016-04-08T02:03:05,7380,736546.0855,-0.040975,-0.020498,-0.077611
2016-04-08T02:04:05,7440,736546.0862,-0.040781,-0.020621,-0.078051
2016-04-08T02:05:05,7500,736546.0869,-0.040586,-0.020742,-0.078492
2016-04-08T02:06:05,7560,736546.0876,-0.04039,-0.020861,-0.078936
2016-04-08T02:07:05,7620,736546.0883,-0.040193,-0.020977,-0.079383
2016-04-08T02:08:05,7680,736546.089,-0.039994,-0.021092,-0.079831
2016-04-08T02:09:05,7740,736546.0896,-0.039794,-0.021205,-0.080282
2016-04-08T02:10:05,7800,736546.0903,-0.039593,-0.021315,-0.080735
2016-04-08T02:11:05,7860,736546.091,-0.039391,-0.021424,-0.081191
2016-04-08T02:12:05,7920,736546.0917,-0.039187,-0.02153,-0.081648
2016-04-08T02:13:05,7980,736546.0924,-0.038983,-0.021634,-0.082108
2016-04-08T02:14:05,8040,736546.0931,-0.038777,-0.021736,-0.082569
2016-04-08T02:15:05,8100,736546.0938,-0.038571,-0.021836,-0.083033
2016-04-08T02:16:05,8160,736546.0945,-0.038363,-0.021934,-0.083498
2016-04-08T02:17:05,8220,736546.0952,-0.038154,-0.022029,-0.083965
2016-04-08T02:18:05,8280,736546.0959,-0.037944,-0.022122,-0.084435
2016-04-08T02:19:05,8340,736546.0966,-0.037733,-0.022213,-0.084906
2016-04-08T02:20:05,8400,736546.0973,-0.037521,-0.022302,-0.085378
2016-04-08T02:21:05,8460,736546.098,-0.037308,-0.022389,-0.085853
2016-04-08T02:22:05,8520,736546.0987,-0.037095,-0.022473,-0.086329
2016-04-08T02:23:05,8580,736546.0994,-0.03688,-0.022555,-0.086807
2016-04-08T02:24:06,8640,736546.1001,-0.036664,-0.022635,-0.087286
2016-04-08T02:25:06,8700,736546.1008,-0.036447,-0.022712,-0.087767
2016-04-08T02:26:06,8760,736546.1015,-0.036229,-0.022788,-0.08825
2016-04-08T02:27:06,8820,736546.1022,-0.036011,-0.022861,-0.088734
2016-04-08T02:28:06,8880,736546.1028,-0.035791,-0.022931,-0.089219
2016-04-08T02:29:06,8940,736546.1035,-0.035571,-0.023,-0.089706
2016-04-08T02:30:06,9000,736546.1042,-0.035349,-0.023066,-0.090194
2016-04-08T02:31:06,9060,736546.1049,-0.035127,-0.023129,-0.090683
2016-04-08T02:32:06,9120,736546.1056,-0.034904,-0.023191,-0.091173
2016-04-08T02:33:06,9180,736546.1063,-0.034681,-0.02325,-0.091665
2016-04-08T02:34:06,9240,736546.107,-0.034456,-0.023306,-0.092158
2016-04-08T02:35:06,9300,736546.1077,-0.034231,-0.023361,-0.092652
2016-04-08T02:36:06,9360,736546.1084,-0.034005,-0.023413,-0.093147
2016-04-08T02:37:06,9420,736546.1091,-0.033778,-0.023462,-0.093643
2016-04-08T02:38:06,9480,736546.1098,-0.03355,-0.023509,-0.09414
2016-04-08T02:39:06,9540,736546.1105,-0.033322,-0.023554,-0.094638
2016-04-08T02:40:06,9600,736546.1112,-0.033093,-0.023596,-0.095137
2016-04-08T02:41:06,9660,736546.1119,-0.032864,-0.023636,-0.095636
2016-04-08T02:42:06,9720,736546.1126,-0.032633,-0.023674,-0.096136
2016-04-08T02:43:06,9780,736546.1133,-0.032403,-0.023709,-0.096637
2016-04-08T02:44:06,9840,736546.114,-0.032171,-0.023742,-0.097139
2016-04-08T02:45:06,9900,736546.1147,-0.031939,-0.023772,-0.097641
2016-04-08T02:46:06,9960,736546.1154,-0.031706,-0.0238,-0.098144
2016-04-08T02:47:06,10020,736546.1161,-0.031473,-0.023825,-0.098648
2016-04-08T02:48:07,10080,736546.1167,-0.031239,-0.023848,-0.099151
2016-04-08T02:49:07,10140,736546.1174,-0.031005,-0.023869,-0.099656
2016-04-08T02:50:07,10200,736546.1181,-0.03077,-0.023887,-0.10016
2016-04-08T02:51:07,10260,736546.1188,-0.030535,-0.023902,-0.100665
2016-04-08T02:52:07,10320,736546.1195,-0.030299,-0.023915,-0.101171
2016-04-08T02:53:07,10380,736546.1202,-0.030063,-0.023926,-0.101676
2016-04-08T02:54:07,10440,736546.1209,-0.029826,-0.023934,-0.102182
2016-04-08T02:55:07,10500,736546.1216,-0.029589,-0.02394,-0.102688
2016-04-08T02:56:07,10560,736546.1223,-0.029352,-0.023943,-0.103194
2016-04-08T02:57:07,10620,736546.123,-0.029114,-0.023943,-0.1037
2016-04-08T02:58:07,10680,736546.1237,-0.028876,-0.023942,-0.104206
2016-04-08T02:59:07,10740,736546.1244,-0.028637,-0.023937,-0.104712
2016-04-08T03:00:07,10800,736546.1251,-0.028398,-0.023931,-0.105217
2016-04-08T03:01:07,10860,736546.1258,-0.028159,-0.023921,-0.105723
2016-04-08T03:02:07,10920,736546.1265,-0.02792,-0.023909,-0.106228
2016-04-08T03:03:07,10980,736546.1272,-0.02768,-0.023895,-0.106734
2016-04-08T03:04:07,11040,736546.1279,-0.02744,-0.023878,-0.107238
2016-04-08T03:05:07,11100,736546.1286,-0.0272,-0.023859,-0.107743
2016-04-08T03:06:07,11160,736546.1293,-0.026959,-0.023837,-0.108247
2016-04-08T03:07:07,11220,736546.13,-0.026718,-0.023813,-0.108751
2016-04-08T03:08:07,11280,736546.1306,-0.026478,-0.023786,-0.109254
2016-04-08T03:09:07,11340,736546.1313,-0.026237,-0.023756,-0.109757
2016-04-08T03:10:07,11400,736546.132,-0.025995,-0.023724,-0.110259
2016-04-08T03:11:07,11460,736546.1327,-0.025754,-0.02369,-0.11076
2016-04-08T03:12:08,11520,736546.1334,-0.025513,-0.023653,-0.111261
2016-04-08T03:13:08,11580,736546.1341,-0.025271,-0.023613,-0.11176
2016-04-08T03:14:08,11640,736546.1348,-0.02503,-0.023571,-0.11226
2016-04-08T03:15:08,11700,736546.1355,-0.024788,-0.023527,-0.112758
2016-04-08T03:16:08,11760,736546.1362,-0.024546,-0.02348,-0.113255
2016-04-08T03:17:08,11820,736546.1369,-0.024305,-0.02343,-0.113752
2016-04-08T03:18:08,11880,736546.1376,-0.024063,-0.023378,-0.114247
2016-04-08T03:19:08,11940,736546.1383,-0.023821,-0.023323,-0.114741
2016-04-08T03:20:08,12000,736546.139,-0.02358,-0.023266,-0.115235
2016-04-08T03:21:08,12060,736546.1397,-0.023338,-0.023206,-0.115727
2016-04-08T03:22:08,12120,736546.1404,-0.023097,-0.023144,-0.116218
2016-04-08T03:23:08,12180,736546.1411,-0.022855,-0.023079,-0.116707
2016-04-08T03:24:08,12240,736546.1418,-0.022614,-0.023012,-0.117196
2016-04-08T03:25:08,12300,736546.1425,-0.022373,-0.022942,-0.117683
2016-04-08T03:26:08,12360,736546.1432,-0.022132,-0.02287,-0.118168
2016-04-08T03:27:08,12420,736546.1438,-0.021891,-0.022795,-0.118653
2016-04-08T03:28:08,12480,736546.1445,-0.02165,-0.022718,-0.119135
2016-04-08T03:29:08,12540,736546.1452,-0.02141,-0.022638,-0.119617
2016-04-08T03:30:08,12600,736546.1459,-0.02117,-0.022556,-0.120096
2016-04-08T03:31:08,12660,736546.1466,-0.02093,-0.022471,-0.120574
2016-04-08T03:32:08,12720,736546.1473,-0.02069,-0.022384,-0.12105
2016-04-08T03:33:08,12780,736546.148,-0.02045,-0.022294,-0.121525
2016-04-08T03:34:08,12840,736546.1487,-0.020211,-0.022201,-0.121998
2016-04-08T03:35:08,12900,736546.1494,-0.019972,-0.022107,-0.122468
2016-04-08T03:36:09,12960,736546.1501,-0.019734,-0.022009,-0.122937
2016-04-08T03:37:09,13020,736546.1508,-0.019496,-0.021909,-0.123405
2016-04-08T03:38:09,13080,736546.1515,-0.019258,-0.021807,-0.12387
2016-04-08T03:39:09,13140,736546.1522,-0.019021,-0.021703,-0.124333
2016-04-08T03:40:09,13200,736546.1529,-0.018784,-0.021595,-0.124794
2016-04-08T03:41:09,13260,736546.1536,-0.018547,-0.021486,-0.125253
2016-04-08T03:42:09,13320,736546.1543,-0.018311,-0.021374,-0.125709
2016-04-08T03:43:09,13380,736546.155,-0.018075,-0.021259,-0.126164
2016-04-08T03:44:09,13440,736546.1557,-0.01784,-0.021142,-0.126616
2016-04-08T03:45:09,13500,736546.1564,-0.017606,-0.021023,-0.127066
2016-04-08T03:46:09,13560,736546.1571,-0.017371,-0.020901,-0.127513
2016-04-08T03:47:09,13620,736546.1577,-0.017138,-0.020776,-0.127958
2016-04-08T03:48:09,13680,736546.1584,-0.016905,-0.02065,-0.128401
2016-04-08T03:49:09,13740,736546.1591,-0.016672,-0.020521,-0.128841
2016-04-08T03:50:09,13800,736546.1598,-0.01644,-0.020389,-0.129279
2016-04-08T03:51:09,13860,736546.1605,-0.016209,-0.020255,-0.129714
2016-04-08T03:52:09,13920,736546.1612,-0.015978,-0.020119,-0.130146
2016-04-08T03:53:09,13980,736546.1619,-0.015748,-0.01998,-0.130575
2016-04-08T03:54:09,14040,736546.1626,-0.015519,-0.019839,-0.131002
2016-04-08T03:55:09,14100,736546.1633,-0.01529,-0.019696,-0.131426
2016-04-08T03:56:09,14160,736546.164,-0.015062,-0.01955,-0.131848
2016-04-08T03:57:09,14220,736546.1647,-0.014835,-0.019401,-0.132266
2016-04-08T03:58:09,14280,736546.1654,-0.014608,-0.019251,-0.132681
2016-04-08T03:59:09,14340,736546.1661,-0.014382,-0.019098,-0.133094
2016-04-08T04:00:10,14400,736546.1668,-0.014157,-0.018943,-0.133503
2016-04-08T04:01:10,14460,736546.1675,-0.013933,-0.018785,-0.133909
2016-04-08T04:02:10,14520,736546.1682,-0.013709,-0.018625,-0.134313
2016-04-08T04:03:10,14580,736546.1689,-0.013487,-0.018463,-0.134713
2016-04-08T04:04:10,14640,736546.1696,-0.013265,-0.018299,-0.13511
2016-04-08T04:05:10,14700,736546.1703,-0.013044,-0.018132,-0.135503
2016-04-08T04:06:10,14760,736546.171,-0.012824,-0.017963,-0.135893
2016-04-08T04:07:10,14820,736546.1716,-0.012605,-0.017792,-0.13628
2016-04-08T04:08:10,14880,736546.1723,-0.012386,-0.017618,-0.136664
2016-04-08T04:09:10,14940,736546.173,-0.012169,-0.017443,-0.137044
2016-04-08T04:10:10,15000,736546.1737,-0.011952,-0.017265,-0.137421
2016-04-08T04:11:10,15060,736546.1744,-0.011737,-0.017084,-0.137794
2016-04-08T04:12:10,15120,736546.1751,-0.011522,-0.016902,-0.138164
2016-04-08T04:13:10,15180,736546.1758,-0.011308,-0.016717,-0.13853
2016-04-08T04:14:10,15240,736546.1765,-0.011096,-0.01653,-0.138892
2016-04-08T04:15:10,15300,736546.1772,-0.010884,-0.016341,-0.139251
2016-04-08T04:16:10,15360,736546.1779,-0.010674,-0.01615,-0.139606
2016-04-08T04:17:10,15420,736546.1786,-0.010464,-0.015957,-0.139957
2016-04-08T04:18:10,15480,736546.1793,-0.010256,-0.015761,-0.140304
2016-04-08T04:19:10,15540,736546.18,-0.010048,-0.015564,-0.140648
2016-04-08T04:20:10,15600,736546.1807,-0.009842,-0.015364,-0.140987
2016-04-08T04:21:10,15660,736546.1814,-0.009637,-0.015162,-0.141323
2016-04-08T04:22:10,15720,736546.1821,-0.009433,-0.014958,-0.141655
2016-04-08T04:23:10,15780,736546.1828,-0.00923,-0.014752,-0.141982
2016-04-08T04:24:11,15840,736546.1835,-0.009028,-0.014544,-0.142306
2016-04-08T04:25:11,15900,736546.1842,-0.008828,-0.014334,-0.142625
2016-04-08T04:26:11,15960,736546.1849,-0.008629,-0.014122,-0.142941
2016-04-08T04:27:11,16020,736546.1855,-0.008431,-0.013907,-0.143252
2016-04-08T04:28:11,16080,736546.1862,-0.008234,-0.013691,-0.143559
2016-04-08T04:29:11,16140,736546.1869,-0.008038,-0.013473,-0.143861
2016-04-08T04:30:11,16200,736546.1876,-0.007844,-0.013253,-0.14416
2016-04-08T04:31:11,16260,736546.1883,-0.00765,-0.01303,-0.144454
2016-04-08T04:32:11,16320,736546.189,-0.007459,-0.012806,-0.144743
2016-04-08T04:33:11,16380,736546.1897,-0.007268,-0.01258,-0.145028
2016-04-08T04:34:11,16440,736546.1904,-0.007079,-0.012352,-0.145309
2016-04-08T04:35:11,16500,736546.1911,-0.006891,-0.012122,-0.145585
2016-04-08T04:36:11,16560,736546.1918,-0.006704,-0.01189,-0.145857
2016-04-08T04:37:11,16620,736546.1925,-0.006519,-0.011656,-0.146124
2016-04-08T04:38:11,16680,736546.1932,-0.006335,-0.011421,-0.146387
2016-04-08T04:39:11,16740,736546.1939,-0.006153,-0.011183,-0.146645
2016-04-08T04:40:11,16800,736546.1946,-0.005972,-0.010944,-0.146898
2016-04-08T04:41:11,16860,736546.1953,-0.005792,-0.010703,-0.147146
2016-04-08T04:42:11,16920,736546.196,-0.005614,-0.01046,-0.14739
2016-04-08T04:43:11,16980,736546.1967,-0.005437,-0.010215,-0.147629
2016-04-08T04:44:11,17040,736546.1974,-0.005262,-0.009968,-0.147863
2016-04-08T04:45:11,17100,736546.1981,-0.005088,-0.00972,-0.148092
2016-04-08T04:46:11,17160,736546.1987,-0.004916,-0.00947,-0.148317
2016-04-08T04:47:11,17220,736546.1994,-0.004745,-0.009218,-0.148536
2016-04-08T04:48:12,17280,736546.2001,-0.004576,-0.008965,-0.148751
2016-04-08T04:49:12,17340,736546.2008,-0.004408,-0.00871,-0.14896
2016-04-08T04:50:12,17400,736546.2015,-0.004242,-0.008453,-0.149165
2016-04-08T04:51:12,17460,736546.2022,-0.004077,-0.008194,-0.149364
2016-04-08T04:52:12,17520,736546.2029,-0.003914,-0.007934,-0.149558
2016-04-08T04:53:12,17580,736546.2036,-0.003752,-0.007672,-0.149747
2016-04-08T04:54:12,17640,736546.2043,-0.003592,-0.007409,-0.149931
2016-04-08T04:55:12,17700,736546.205,-0.003434,-0.007144,-0.15011
2016-04-08T04:56:12,17760,736546.2057,-0.003277,-0.006877,-0.150284
2016-04-08T04:57:12,17820,736546.2064,-0.003122,-0.006609,-0.150452
2016-04-08T04:58:12,17880,736546.2071,-0.002969,-0.006339,-0.150615
2016-04-08T04:59:12,17940,736546.2078,-0.002817,-0.006068,-0.150773
2016-04-08T05:00:12,18000,736546.2085,-0.002667,-0.005795,-0.150925
2016-04-08T05:01:12,18060,736546.2092,-0.002518,-0.005521,-0.151072
2016-04-08T05:02:12,18120,736546.2099,-0.002371,-0.005245,-0.151214
2016-04-08T05:03:12,18180,736546.2106,-0.002226,-0.004968,-0.15135
2016-04-08T05:04:12,18240,736546.2113,-0.002083,-0.00469,-0.151481
2016-04-08T05:05:12,18300,736546.212,-0.001941,-0.00441,-0.151606
2016-04-08T05:06:12,18360,736546.2126,-0.001801,-0.004128,-0.151726
2016-04-08T05:07:12,18420,736546.2133,-0.001663,-0.003846,-0.15184
2016-04-08T05:08:12,18480,736546.214,-0.001527,-0.003561,-0.151948
2016-04-08T05:09:12,18540,736546.2147,-0.001392,-0.003276,-0.152051
2016-04-08T05:10:12,18600,736546.2154,-0.001259,-0.002989,-0.152149
2016-04-08T05:11:12,18660,736546.2161,-0.001128,-0.002701,-0.15224
2016-04-08T05:12:13,18720,736546.2168,-0.000999,-0.002412,-0.152326
2016-04-08T05:13:13,18780,736546.2175,-0.000872,-0.002121,-0.152407
2016-04-08T05:14:13,18840,736546.2182,-0.000746,-0.00183,-0.152481
2016-04-08T05:15:13,18900,736546.2189,-0.000622,-0.001537,-0.15255
2016-04-08T05:16:13,18960,736546.2196,-0.0005,-0.001243,-0.152613
2016-04-08T05:17:13,19020,736546.2203,-0.00038,-0.000947,-0.152671
2016-04-08T05:18:13,19080,736546.221,-0.000262,-0.000651,-0.152722
2016-04-08T05:19:13,19140,736546.2217,-0.000146,-0.000353,-0.152768
2016-04-08T05:20:13,19200,736546.2224,-3.10E-05,-5.40E-05,-0.152808
2016-04-08T05:21:13,19260,736546.2231,8.10E-05,0.000246,-0.152842
2016-04-08T05:22:13,19320,736546.2238,0.000192,0.000547,-0.15287
2016-04-08T05:23:13,19380,736546.2245,0.000301,0.000848,-0.152892
2016-04-08T05:24:13,19440,736546.2252,0.000408,0.001151,-0.152908
2016-04-08T05:25:13,19500,736546.2259,0.000512,0.001455,-0.152918
2016-04-08T05:26:13,19560,736546.2265,0.000615,0.00176,-0.152922
2016-04-08T05:27:13,19620,736546.2272,0.000716,0.002066,-0.15292
2016-04-08T05:28:13,19680,736546.2279,0.000816,0.002373,-0.152912
2016-04-08T05:29:13,19740,736546.2286,0.000913,0.002681,-0.152898
2016-04-08T05:30:13,19800,736546.2293,0.001008,0.00299,-0.152878
2016-04-08T05:31:13,19860,736546.23,0.001101,0.003299,-0.152852
2016-04-08T05:32:13,19920,736546.2307,0.001192,0.00361,-0.15282
2016-04-08T05:33:13,19980,736546.2314,0.001281,0.003921,-0.152782
2016-04-08T05:34:13,20040,736546.2321,0.001368,0.004233,-0.152737
2016-04-08T05:35:13,20100,736546.2328,0.001454,0.004546,-0.152687
2016-04-08T05:36:14,20160,736546.2335,0.001537,0.00486,-0.15263
2016-04-08T05:37:14,20220,736546.2342,0.001618,0.005174,-0.152567
2016-04-08T05:38:14,20280,736546.2349,0.001697,0.005489,-0.152498
2016-04-08T05:39:14,20340,736546.2356,0.001774,0.005805,-0.152423
2016-04-08T05:40:14,20400,736546.2363,0.001849,0.006122,-0.152341
2016-04-08T05:41:14,20460,736546.237,0.001922,0.006439,-0.152253
2016-04-08T05:42:14,20520,736546.2377,0.001993,0.006757,-0.152159
2016-04-08T05:43:14,20580,736546.2384,0.002062,0.007075,-0.152059
2016-04-08T05:44:14,20640,736546.2391,0.002129,0.007394,-0.151953
2016-04-08T05:45:14,20700,736546.2397,0.002193,0.007714,-0.15184
2016-04-08T05:46:14,20760,736546.2404,0.002256,0.008034,-0.151721
2016-04-08T05:47:14,20820,736546.2411,0.002316,0.008355,-0.151595
2016-04-08T05:48:14,20880,736546.2418,0.002375,0.008676,-0.151463
2016-04-08T05:49:14,20940,736546.2425,0.002431,0.008997,-0.151325
2016-04-08T05:50:14,21000,736546.2432,0.002486,0.00932,-0.151181
2016-04-08T05:51:14,21060,736546.2439,0.002538,0.009642,-0.15103
2016-04-08T05:52:14,21120,736546.2446,0.002588,0.009965,-0.150873